#timestamp,LO_Frequency,Hit,StdDev 
1457827215.2,286047004.2,N
1457827235.0,286047003.3,N
1457827235.9,286047003.3,N
1457827255.7,286047002.9,N
1457827275.6,286047006.2,Y
1457827295.4,286047002.6,P
1457827315.2,286047001.0,P
1457827335.1,286047000.4,N
1457827336.0,286047000.4,N
1457827355.8,286046998.5,N
1457827375.6,286046998.9,N
1457827395.5,286046996.5,N
1457827415.3,286046998.7,N
1457827435.1,286046999.0,N
1457827455.9,286046998.4,N
1457827475.7,286046998.2,N
1457827495.5,286046993.8,Y
1457827515.4,286046993.6,P
1457827535.2,286046993.7,N
1457827555.0,286046994.9,N
1457827555.9,286046994.9,N
1457827575.8,286046995.0,N
1457827595.6,286046996.4,N
1457827615.4,286046996.0,N
1457827635.3,286046993.7,Y
1457827655.1,286046998.1,P
1457827656.0,286046998.1,N
1457827675.8,286046998.4,N
1457827695.7,286046996.6,N
1457827715.5,286046993.3,Y
1457827735.3,286046994.3,P
1457827755.2,286046997.2,N
1457827775.9,286046998.1,N
1457827795.7,286047001.1,N
1457827815.6,286046996.8,N
1457827835.4,286046999.3,N
1457827855.2,286046997.8,N
1457827875.1,286046993.6,Y
1457827876.0,286046993.6,P
1457827895.8,286046995.4,N
1457827915.6,286046996.4,N
1457827935.5,286046997.1,N
1457827955.3,286046998.1,N
1457827975.1,286047001.2,N
1457827995.8,286046999.3,N
1457828015.7,286046997.3,N
1457828035.5,286047001.2,N
1457828055.3,286047001.0,N
1457828075.2,286047002.7,N
1457828095.9,286047000.6,N
1457828115.7,286047004.2,N
1457828135.6,286047004.1,N
1457828155.4,286047000.8,N
1457828175.2,286047002.5,N
1457828195.1,286046999.0,N
1457828196.0,286046999.0,N
1457828215.8,286046999.0,N
1457828235.6,286047001.1,N
1457828255.5,286046998.7,N
1457828275.3,286047000.2,N
1457828295.1,286046998.1,N
1457828315.8,286046999.5,N
1457828335.7,286046998.9,N
1457828355.5,286046998.3,N
1457828375.3,286046998.4,N
1457828395.2,286046999.3,N
1457828415.9,286046998.8,N
1457828435.7,286046998.8,N
1457828455.6,286047000.8,N
1457828475.4,286046996.6,N
1457828495.2,286046996.6,N
1457828515.1,286046996.6,N
1457828516.0,286046996.6,N
1457828535.8,286046994.9,N
1457828555.6,286046996.6,N
1457828575.5,286046996.7,N
1457828595.3,286046995.3,N
1457828615.1,286046999.6,N
1457828635.8,286046995.0,N
1457828655.7,286046995.5,N
1457828675.5,286047000.8,N
1457828695.3,286046998.6,N
1457828715.2,286046996.0,N
1457828735.9,286046997.2,N
1457828755.7,286046994.6,Y
1457828775.6,286046993.9,P
1457828795.4,286046991.8,P
1457828815.2,286046991.0,P
1457828835.1,286046992.2,N
1457828836.0,286046992.2,Y
1457828855.8,286047000.6,P
1457828875.6,286047001.1,N
1457828895.5,286047001.4,N
1457828915.3,286046998.5,N
1457828935.1,286046998.4,N
1457828955.9,286047000.7,N
1457828975.7,286047002.3,N
1457828995.5,286047001.9,N
1457829015.4,286047004.0,N
1457829035.2,286047003.8,N
1457829055.0,286047004.7,N
1457829055.9,286047004.7,N
1457829075.7,286047004.8,N
1457829095.6,286047007.1,N
1457829115.4,286047006.8,N
1457829135.2,286047009.2,N
1457829155.1,286047012.1,Y
1457829156.0,286047012.1,P
1457829175.8,286047010.0,N
1457829195.6,286047008.1,N
1457829215.5,286047007.8,N
1457829235.3,286047010.2,Y
1457829255.1,286047002.7,P
1457829275.9,286047002.3,N
1457829295.7,286047003.3,N
1457829315.5,286047007.6,Y
1457829335.4,286047001.5,P
1457829355.2,286047004.3,P
1457829375.0,286047000.0,N
1457829375.9,286047000.0,N
1457829395.8,286046998.2,N
1457829415.6,286046999.8,N
1457829435.4,286047001.4,N
1457829455.3,286047002.2,N
1457829475.1,286047002.4,N
1457829476.0,286047002.4,N
1457829495.8,286047001.5,N
1457829515.7,286046998.5,N
1457829535.5,286046997.7,N
1457829555.3,286046995.0,N
1457829575.2,286046995.0,N
1457829595.9,286046999.0,N
1457829615.7,286046999.3,N
1457829635.5,286046999.5,N
1457829655.4,286046997.9,N
1457829675.2,286046994.2,N
1457829695.0,286046993.0,N
1457829695.9,286046993.0,N
1457829715.8,286046993.1,N
1457829735.6,286046991.8,N
1457829755.4,286046992.4,N
1457829775.3,286046993.1,N
1457829795.1,286046991.3,N
1457829796.0,286046991.3,N
1457829815.8,286046991.4,N
1457829835.7,286046990.1,N
1457829855.5,286046992.7,N
1457829875.3,286046990.4,N
1457829895.2,286046994.6,N
1457829915.9,286046995.6,N
1457829935.7,286046995.5,N
1457829955.6,286046994.4,N
1457829975.4,286046990.5,N
1457829995.2,286046992.7,N
1457830015.0,286046993.0,N
1457830015.9,286046993.0,N
1457830035.8,286046990.3,Y
1457830055.6,286046995.9,P
1457830075.4,286046997.3,P
1457830095.3,286046998.8,N
1457830115.1,286046999.2,N
1457830135.8,286046997.2,N
1457830155.7,286046999.3,N
1457830175.5,286046997.2,N
1457830195.3,286046999.0,N
1457830215.2,286047001.2,N
1457830235.9,286047002.6,N
1457830255.7,286047002.6,N
1457830275.6,286047005.4,N
1457830295.4,286047005.6,N
1457830315.2,286047007.5,N
1457830335.1,286047005.5,N
1457830336.0,286047005.5,N
1457830355.8,286047007.4,N
1457830375.6,286047005.6,N
1457830395.4,286047002.9,N
1457830415.3,286047002.4,N
1457830435.1,286047001.8,N
1457830455.8,286047003.1,N
1457830475.7,286047005.9,N
1457830495.5,286047005.7,N
1457830515.3,286047003.7,N
1457830535.2,286047004.9,N
1457830555.9,286047006.0,N
1457830575.7,286047003.3,N
1457830595.6,286047005.0,N
1457830615.4,286047006.6,N
1457830635.2,286047010.5,Y
1457830655.1,286047007.5,P
1457830656.0,286047007.5,P
1457830675.8,286047003.0,N
1457830695.6,286047004.1,N
1457830715.5,286047003.4,N
1457830735.3,286047005.8,N
1457830755.1,286047003.5,N
1457830775.9,286047003.3,N
1457830795.7,286047000.4,N
